Location: Austin
(30.3000°N, 97.7500°W)
Time: 23:45:30
(UTC-05:00)

SJ-6B - Pass Details

Date: 06 May 2026
Orbit: 453 x 498 km, 97.3° (Epoch: 13 May)

Event Time Altitude Azimuth Distance (km) Brightness Sun altitude
Rises 20:40:50 0° 161° (SSE) 2,533 5.8 -6.5°
Reaches altitude 10° 20:42:55 10° 158° (SSE) 1,650 4.8 -7.0°
Maximum altitude 20:46:25 61° 77° (ENE) 542 2.6 -7.6°
Drops below altitude 10° 20:49:53 10° 357° (N) 1,634 5.6 -8.3°
Sets 20:51:56 0° 353° (N) 2,506 6.7 -8.7°
